[[{"header":{"parameterUnit":"m.s-1","parameterCategory":1,"la1":30.2991,"la2":30.254,"lo1":-89.0895,"lo2":-89.0444,"dy":0.0017,"dx":0.0017,"nx":28,"ny":28,"refTime":"2023-11-20T09:00:00:Z","depth":0,"parameterNumber":2,"parameterNumberName":"U-component_of_WINDS"},"data":[0,0,0,0,0,0,0,0,0,0,0,0,0,0,0,0,0,0,0,0,0,0,0,0,0,0,0,0,0,0,0,0,0,0,0,0,0,0,0,0,0,0,0,0,0,0,0,0,0,0,0,0,0,0,0,0,0,0,-0.9598,-0.9598,0,-0.9582,-0.9582,-0.9582,-0.9545,-0.9544,-0.9544,-0.9543,-0.9529,-0.9529,-0.953,0,0,0,0,0,0,0,0,0,0,0,0,0,-0.9597,-0.9597,-0.9598,-0.9598,-0.9597,-0.9582,-0.9582,-0.9582,-0.9545,-0.9544,-0.9543,-0.9543,-0.9529,-0.9529,-0.953,0,0,0,0,0,0,0,0,0,0,0,0,0,-0.9591,-0.9597,-0.9598,-0.9577,-0.9575,-0.9582,-0.9582,-0.9582,-0.9545,-0.9544,-0.9543,-0.9542,-0.9529,-0.9529,-0.953,-0.9556,0,0,-0.9532,-0.9532,0,0,0,0,0,0,0,0,-0.9591,-0.9591,-0.958,-0.9579,-0.9576,-0.9564,-0.9577,-0.9573,-0.9546,-0.9557,-0.9543,-0.9542,-0.9542,-0.9541,-0.9541,-0.9556,-0.9555,-0.9532,-0.9532,-0.9532,-0.9532,0,0,0,0,0,0,0,-0.9592,-0.9592,-0.9592,-0.958,-0.9578,-0.9569,-0.9567,-0.9576,-0.9556,-0.9556,-0.9553,-0.9552,-0.9541,-0.9541,-0.954,-0.9555,-0.9532,-0.9532,-0.9532,-0.9533,-0.959,-0.9591,0,0,0,0,0,0,-0.9595,-0.9592,-0.9592,-0.9591,-0.9581,-0.957,-0.9568,-0.9569,-0.9556,-0.9553,-0.9553,-0.955,-0.954,-0.954,-0.954,-0.9569,-0.9532,-0.9533,-0.9533,-0.9589,-0.959,-0.9591,0,0,0,0,0,0,-0.9595,-0.9595,-0.9593,-0.9591,-0.959,-0.9571,-0.9574,-0.957,-0.957,-0.9553,-0.955,-0.9556,-0.9539,-0.9539,-0.9552,-0.9569,-0.9533,-0.9533,-0.9587,-0.9589,-0.9591,-0.9629,0,0,0,0,0,0,-0.9595,-0.9596,-0.9605,-0.9591,-0.959,-0.9605,-0.9575,-0.957,-0.957,-0.9567,-0.9556,-0.9553,-0.9538,-0.9552,-0.9553,-0.9569,-0.9534,-0.9586,-0.9588,-0.959,-0.9627,-0.9632,-0.9637,0,0,0,0,0,-0.9595,-0.9617,-0.9606,-0.9606,-0.9602,-0.9606,-0.9606,-0.9588,-0.9572,-0.9582,-0.9571,-0.9553,-0.9566,-0.9553,-0.9554,-0.9571,-0.9584,-0.9587,-0.959,-0.9624,-0.9631,-0.9637,0,0,0,0,0,0,-0.9635,-0.9615,-0.9602,-0.962,-0.9615,-0.96,-0.9612,-0.9596,-0.9595,-0.9592,-0.9571,-0.9568,-0.9585,-0.9579,-0.9564,-0.9595,-0.9573,-0.9576,-0.9598,-0.9605,-0.961,-0.9611,-0.9534,0,0,0,0,0,-0.9645,-0.965,-0.9633,-0.9651,-0.9648,-0.9631,-0.9632,-0.9618,-0.9612,-0.961,-0.9601,-0.9596,-0.9599,-0.9601,-0.9603,-0.9625,-0.9622,-0.9637,-0.9642,-0.9647,-0.965,-0.9661,-0.9667,-0.96,-0.96,-0.96,0,0,-0.9668,-0.9658,-0.9662,-0.9658,-0.9653,-0.9658,-0.9629,-0.9637,-0.9641,-0.9612,-0.9623,-0.9616,-0.9609,-0.9627,-0.9634,-0.9622,-0.9667,-0.965,-0.9654,-0.9654,-0.9664,-0.967,-0.9676,-0.9602,-0.9602,-0.9601,0,0,-0.9712,-0.9704,-0.9718,-0.9712,-0.9704,-0.9691,-0.9695,-0.9682,-0.9676,-0.9687,-0.9665,-0.9669,-0.9675,-0.9671,-0.967,-0.9711,-0.9694,-0.9712,-0.974,-0.9751,-0.9756,-0.976,-0.9775,-0.9781,-0.9715,-0.9715,-0.9715,0,-0.9741,-0.9748,-0.9727,-0.9736,-0.9735,-0.9707,-0.9721,-0.9717,-0.971,-0.971,-0.9697,-0.9702,-0.9696,-0.9712,-0.9722,-0.9722,-0.9725,-0.9713,-0.9757,-0.9761,-0.9765,-0.9779,-0.9784,-0.9717,-0.9717,-0.9717,-0.9716,0,-0.9784,-0.979,-0.9802,-0.9794,-0.9794,-0.9806,-0.9787,-0.979,-0.9776,-0.9765,-0.9776,-0.9768,-0.9767,-0.977,-0.9757,-0.9784,-0.9777,-0.976,-0.9737,-0.9774,-0.9786,-0.9792,-0.972,-0.9719,-0.9719,-0.9718,0,0,-0.9854,-0.9833,-0.9838,-0.9834,-0.9822,-0.9826,-0.9836,-0.9834,-0.9837,-0.9833,-0.9841,-0.9845,-0.983,-0.9828,-0.9815,-0.9824,-0.9857,-0.9806,-0.9806,-0.9816,-0.9886,-0.9899,-0.9905,-0.9846,-0.9847,-0.9847,-0.9887,0,-0.9895,-0.991,-0.9891,-0.9911,-0.9915,-0.9889,-0.9897,-0.9891,-0.9881,-0.9883,-0.9872,-0.9876,-0.9855,-0.9854,-0.9862,-0.9851,-0.9871,-0.9848,-0.9853,-0.9854,-0.9856,-0.9912,-0.9925,-0.9963,-0.9891,-0.9892,-0.9893,0,-0.9945,-0.9942,-0.9962,-0.9948,-0.9949,-0.9957,-0.9953,-0.9956,-0.9948,-0.994,-0.9938,-0.9921,-0.993,-0.9907,-0.9919,-0.9904,-0.9905,-0.99,-0.9901,-0.9901,-0.9876,-0.9914,-0.9974,-0.998,-0.99,-0.99,-0.9899,0,-0.9994,-0.9995,-1.0007,-1.0004,-0.9988,-0.9994,-0.9987,-0.9978,-0.9978,-0.9975,-0.9975,-0.9974,-0.9973,-0.9972,-0.9955,-0.994,-0.997,-0.9945,-0.9963,-0.9964,-0.9972,-0.9971,-1.0034,-0.9971,-0.9971,-0.9971,-0.9971,0,-1.0043,-1.0056,-1.0028,-1.0036,-1.0049,-1.0027,-1.0042,-1.0033,-1.0024,-1.003,-1.0007,-1.0012,-0.9989,-0.9992,-0.9979,-0.9991,-0.9991,-0.9985,-0.9981,-0.9987,-0.9988,-0.9988,-0.9985,-0.9973,-0.9972,-0.9972,-0.9972,0,-1.01,-1.0082,-1.0093,-1.0076,-1.0072,-1.0083,-1.0069,-1.0075,-1.0063,-1.007,-1.007,-1.0051,-1.0053,-1.0036,-1.0036,-1.0027,-1.0045,-1.0037,-1.0048,-1.0045,-1.0064,-1.0063,-1.0129,-1.0137,-1.0069,-1.007,-1.0071,0,-1.0133,-1.0142,-1.0126,-1.0127,-1.0121,-1.0124,-1.0124,-1.0102,-1.0102,-1.0093,-1.0101,-1.0101,-1.01,-1.0105,-1.0091,-1.0091,-1.0083,-1.0106,-1.0082,-1.0088,-1.0083,-1.0083,-1.0084,-1.0111,-1.0112,-1.0112,-1.0113,0,-1.0193,-1.0183,-1.0182,-1.0179,-1.0179,-1.0175,-1.017,-1.0172,-1.0149,-1.015,-1.0152,-1.0151,-1.015,-1.015,-1.0147,-1.014,-1.0123,-1.012,-1.0124,-1.0131,-1.0137,-1.0134,-1.0061,-1.0119,-1.0119,-1.0118,-1.0118,-1.0117,-1.0239,-1.0246,-1.0235,-1.0235,-1.0228,-1.0224,-1.0229,-1.0216,-1.0217,-1.0214,-1.0201,-1.0205,-1.0196,-1.0189,-1.0184,-1.0187,-1.0176,-1.0182,-1.0183,-1.0185,-1.0189,-1.0136,-1.0186,-1.0186,-1.0186,-1.0185,-1.0185,0,-1.0298,-1.0289,-1.0289,-1.0282,-1.0282,-1.0264,-1.0257,-1.0259,-1.0262,-1.0255,-1.0254,-1.0256,-1.0256,-1.0242,-1.024,-1.0245,-1.0237,-1.0245,-1.0245,-1.0244,-1.0199,-1.0195,-1.0252,-1.0252,-1.0252,-1.0252,-1.0252,-1.0252,-1.0328,-1.0339,-1.0327,-1.0334,-1.0325,-1.0328,-1.0326,-1.0321,-1.0315,-1.0318,-1.0317,-1.0308,-1.0298,-1.0295,-1.0294,-1.029,-1.0291,-1.0302,-1.0295,-1.0254,-1.0247,-1.0241,-1.0238,-1.0302,-1.0302,-1.034,-1.0341,-1.0341]},{"header":{"parameterUnit":"m.s-1","parameterCategory":1,"la1":30.2991,"la2":30.254,"lo1":-89.0895,"lo2":-89.0444,"dy":0.0017,"dx":0.0017,"nx":28,"ny":28,"refTime":"2023-11-20T09:00:00:Z","depth":0,"parameterNumber":3,"parameterNumberName":"V-component_of_WINDS"},"data":[0,0,0,0,0,0,0,0,0,0,0,0,0,0,0,0,0,0,0,0,0,0,0,0,0,0,0,0,0,0,0,0,0,0,0,0,0,0,0,0,0,0,0,0,0,0,0,0,0,0,0,0,0,0,0,0,0,0,1.49,1.4901,0,1.4951,1.4952,1.4953,1.4967,1.4967,1.4967,1.4967,1.5017,1.5019,1.5021,0,0,0,0,0,0,0,0,0,0,0,0,0,1.4813,1.4815,1.49,1.4901,1.4901,1.4951,1.4952,1.4953,1.4967,1.4967,1.4967,1.4966,1.5017,1.5019,1.5021,0,0,0,0,0,0,0,0,0,0,0,0,0,1.4856,1.4815,1.49,1.4915,1.4917,1.4951,1.4952,1.4953,1.4967,1.4967,1.4967,1.4966,1.5016,1.5019,1.5021,1.5044,0,0,1.5028,1.5029,0,0,0,0,0,0,0,0,1.4854,1.486,1.4912,1.4914,1.4916,1.4953,1.494,1.4983,1.4968,1.4948,1.4966,1.4966,1.4996,1.5,1.5011,1.5046,1.5049,1.5029,1.503,1.5031,1.5032,0,0,0,0,0,0,0,1.4851,1.4857,1.492,1.4913,1.4915,1.4918,1.4924,1.4948,1.4974,1.495,1.4951,1.4957,1.4997,1.5008,1.5012,1.5049,1.5028,1.5031,1.5032,1.5033,1.5107,1.5107,0,0,0,0,0,0,1.4846,1.4855,1.4919,1.4922,1.4883,1.492,1.4927,1.4941,1.4973,1.4978,1.4957,1.4957,1.5004,1.5009,1.5014,1.5043,1.5031,1.5033,1.5035,1.5106,1.5107,1.5107,0,0,0,0,0,0,1.4844,1.4851,1.4917,1.4889,1.4897,1.4922,1.4938,1.4942,1.4954,1.4979,1.4984,1.4964,1.5004,1.501,1.5036,1.5045,1.5034,1.5037,1.5106,1.5106,1.5107,1.5101,0,0,0,0,0,0,1.4841,1.485,1.486,1.4889,1.4899,1.4939,1.4939,1.4944,1.4958,1.4959,1.4987,1.4991,1.5004,1.5033,1.5039,1.5048,1.5038,1.5105,1.5106,1.5107,1.5101,1.5102,1.5102,0,0,0,0,0,1.4838,1.4856,1.486,1.4868,1.4911,1.4939,1.4945,1.4961,1.4959,1.4968,1.4984,1.499,1.5043,1.5035,1.5042,1.5052,1.5104,1.5106,1.5107,1.51,1.5101,1.5102,0,0,0,0,0,0,1.4826,1.486,1.4865,1.4893,1.4913,1.4942,1.4954,1.4961,1.4982,1.4982,1.5,1.5006,1.5031,1.5044,1.5035,1.5076,1.5074,1.5076,1.5066,1.5068,1.5069,1.5065,1.504,0,0,0,0,0,1.4827,1.4848,1.4876,1.4898,1.4908,1.4929,1.4942,1.4952,1.4974,1.4982,1.5001,1.5021,1.5042,1.5056,1.5077,1.5103,1.5109,1.5113,1.5114,1.5114,1.5116,1.5131,1.5133,1.5111,1.5111,1.5111,0,0,1.4829,1.485,1.4862,1.4896,1.4913,1.4933,1.4936,1.4958,1.4973,1.4986,1.5012,1.5026,1.5049,1.5076,1.5088,1.5088,1.5124,1.5116,1.5116,1.5118,1.5132,1.5134,1.5136,1.5112,1.5112,1.5112,0,0,1.4842,1.486,1.488,1.4898,1.4923,1.4938,1.4942,1.497,1.498,1.5007,1.5016,1.5034,1.5071,1.5087,1.51,1.512,1.5126,1.5127,1.5131,1.5145,1.5146,1.5148,1.5155,1.5157,1.5128,1.5128,1.5128,0,1.4841,1.4873,1.489,1.4911,1.4926,1.4938,1.4959,1.4974,1.5005,1.5015,1.5014,1.506,1.5077,1.5107,1.5112,1.5122,1.5128,1.5123,1.5145,1.5147,1.5148,1.5155,1.5158,1.5128,1.5128,1.5128,1.5128,0,1.487,1.4892,1.4905,1.4935,1.4951,1.4972,1.4991,1.5005,1.5014,1.5028,1.5055,1.5076,1.5101,1.5109,1.5118,1.514,1.5139,1.5141,1.5139,1.515,1.5156,1.5159,1.5128,1.5128,1.5128,1.5128,0,0,1.4877,1.4917,1.4921,1.4935,1.4965,1.4982,1.5003,1.5028,1.504,1.5061,1.5078,1.5109,1.5111,1.5126,1.5137,1.5149,1.5163,1.515,1.515,1.5151,1.5189,1.5187,1.519,1.5167,1.5168,1.5168,1.5187,0,1.4894,1.4933,1.4948,1.4979,1.5,1.5012,1.503,1.505,1.5064,1.5083,1.5098,1.5119,1.5121,1.513,1.5142,1.5159,1.5171,1.5157,1.5183,1.5184,1.5177,1.5193,1.5191,1.5207,1.5189,1.519,1.519,0,1.4919,1.4941,1.4974,1.5001,1.501,1.5026,1.505,1.5069,1.5091,1.51,1.5117,1.5127,1.5149,1.5146,1.5176,1.5167,1.5178,1.5188,1.5189,1.5192,1.5187,1.5196,1.5213,1.5215,1.5194,1.5194,1.5194,0,1.492,1.4958,1.4983,1.4994,1.5026,1.5037,1.5051,1.5074,1.5088,1.5109,1.5118,1.5142,1.5154,1.5172,1.5188,1.5184,1.5216,1.5215,1.5224,1.5224,1.523,1.5229,1.5249,1.5238,1.5238,1.5238,1.5238,0,1.4938,1.4957,1.4984,1.4999,1.5021,1.5039,1.506,1.5075,1.5095,1.5113,1.5125,1.5141,1.5161,1.518,1.5193,1.5216,1.5221,1.5229,1.5232,1.5228,1.5227,1.5235,1.5234,1.5239,1.5239,1.5238,1.5238,0,1.4943,1.4962,1.4989,1.5018,1.5025,1.504,1.5065,1.5079,1.5094,1.5116,1.5123,1.5145,1.5168,1.5186,1.5215,1.5224,1.5248,1.5251,1.524,1.5242,1.525,1.5249,1.5276,1.528,1.5266,1.5267,1.5267,0,1.4952,1.4968,1.4998,1.5011,1.5025,1.5046,1.5061,1.5079,1.5093,1.512,1.5132,1.5156,1.5175,1.5211,1.523,1.5252,1.5256,1.5264,1.526,1.5255,1.5256,1.5255,1.5256,1.5265,1.5265,1.5265,1.5265,0,1.4967,1.4976,1.4997,1.5021,1.5038,1.5058,1.5078,1.5088,1.5109,1.5125,1.5149,1.5164,1.5195,1.5218,1.5242,1.5256,1.5264,1.5266,1.5269,1.5265,1.5258,1.5261,1.5241,1.5265,1.5265,1.5265,1.5265,1.5265,1.4975,1.4989,1.5013,1.5035,1.5052,1.5071,1.5086,1.5103,1.5123,1.5149,1.5159,1.5183,1.5205,1.5239,1.5253,1.5272,1.5272,1.5277,1.5278,1.5279,1.5279,1.5255,1.5277,1.5277,1.5277,1.5277,1.5277,0,1.499,1.5006,1.5026,1.5054,1.5072,1.5078,1.5101,1.5115,1.5137,1.5157,1.5176,1.5203,1.5226,1.5247,1.527,1.5281,1.5285,1.5287,1.5286,1.5289,1.5277,1.5272,1.5283,1.5283,1.5283,1.5283,1.5283,1.5283,1.5,1.5024,1.5035,1.5068,1.5084,1.5108,1.512,1.5137,1.5153,1.5183,1.5202,1.5216,1.5236,1.5261,1.5282,1.5288,1.5296,1.5296,1.5302,1.5291,1.529,1.5289,1.5284,1.5298,1.5298,1.5312,1.5313,1.5313]}]]